New Iberia, LA

8:25 PM CST on December 09, 2016 (GMT -0600)
Acadiana Regional

Weather History for KARA - May, 2013

Change the Weather History Date:

Thursday, May 30, 2013

  Actual Average Record
Temperature  
Mean Temperature 84 °F 79 °F  
Max Temperature 92 °F 88 °F 95 °F (2000)
Min Temperature 76 °F 70 °F 55 °F (1984)
Degree Days  
Heating Degree Days 0 0  
Month to date heating degree days 21 0  
Since 1 July heating degree days 1150 1408  
Cooling Degree Days 19 14  
Month to date cooling degree days 303 336  
Year to date cooling degree days 547 556  
Growing Degree Days 33 (Base 50)    
Moisture  
Dew Point 72 °F    
Average Humidity 70    
Maximum Humidity 88    
Minimum Humidity 52    
Precipitation  
Precipitation 0.00 in 0.24 in 2.25 in (1975)
Month to date precipitation 9.10 4.74  
Year to date precipitation 35.35 21.99  
Sea Level Pressure  
Sea Level Pressure 29.94 in    
Wind  
Wind Speed 13 mph (SE)    
Max Wind Speed 21 mph    
Max Gust Speed 26 mph    
Visibility 9 miles    
Events      
T = Trace of Precipitation, MM = Missing Value Source: NWS Daily Summary

Daily Weather History Graph

Daily Weather History Graph

Search for Another Location

Airport or City:

Trip Planner

Search our weather history database for the weather conditions in past years. The results will help you decide how hot, cold, wet, or windy it might be!

Date:

Astronomy

May. 30, 2013 Rise Set
Actual Time 6:07 AM CDT 8:03 PM CDT
Civil Twilight 5:40 AM CDT 8:30 PM CDT
Nautical Twilight 5:07 AM CDT 9:02 PM CDT
Astronomical Twilight 4:32 AM CDT 9:37 PM CDT
Moon 12:19 AM CDT (5/30) 11:59 AM CDT (5/30)
Length of Visible Light 14h 49m
Length of Day
13h 56m
Waning Gibbous, 62% of the Moon is Illuminated
May 30
Waning Gibbous
May 31
Last Quarter
Jun 8
New
Jun 16
First Quarter
Jun 23
Full

Hourly Weather History & Observations

Time (CDT) Temp. Heat Index Dew Point Humidity Pressure Visibility Wind Dir Wind Speed Gust Speed Precip Events Conditions
12:53 AM 78.1 °F - 72.0 °F 81% 29.96 in 10.0 mi ESE 9.2 mph - N/A   Clear
1:53 AM 77.0 °F - 72.0 °F 84% 29.94 in 10.0 mi SE 8.1 mph - N/A   Clear
2:53 AM 75.9 °F - 72.0 °F 87% 29.93 in 10.0 mi SE 5.8 mph - N/A   Clear
3:53 AM 75.9 °F - 72.0 °F 87% 29.92 in 9.0 mi SE 6.9 mph - N/A   Partly Cloudy
4:53 AM 77.0 °F - 73.0 °F 88% 29.92 in 9.0 mi SE 8.1 mph - N/A   Scattered Clouds
5:39 AM 77.0 °F - 73.4 °F 89% 29.92 in 8.0 mi SE 5.8 mph - N/A   Mostly Cloudy
5:50 AM 77.0 °F - 73.4 °F 89% 29.92 in 7.0 mi SE 5.8 mph - N/A   Scattered Clouds
5:53 AM 77.0 °F - 73.0 °F 88% 29.92 in 7.0 mi SE 5.8 mph - N/A   Scattered Clouds
6:53 AM 78.1 °F - 73.9 °F 87% 29.94 in 7.0 mi ESE 5.8 mph - N/A   Mostly Cloudy
7:08 AM 78.8 °F - 73.4 °F 83% 29.94 in 7.0 mi ESE 9.2 mph - N/A   Scattered Clouds
7:53 AM 81.0 °F 86.2 °F 73.9 °F 79% 29.95 in 10.0 mi ESE 12.7 mph - N/A   Clear
8:53 AM 82.9 °F 89.4 °F 73.9 °F 74% 29.96 in 10.0 mi SE 16.1 mph - N/A   Mostly Cloudy
9:00 AM 84.2 °F 90.9 °F 73.4 °F 70% 29.96 in 10.0 mi SE 15.0 mph - N/A   Mostly Cloudy
9:37 AM 84.2 °F 90.9 °F 73.4 °F 70% 29.96 in 10.0 mi SE 17.3 mph - N/A   Scattered Clouds
9:53 AM 87.1 °F 94.5 °F 73.0 °F 63% 29.96 in 10.0 mi SE 18.4 mph - N/A   Partly Cloudy
10:53 AM 88.0 °F 94.7 °F 72.0 °F 59% 29.97 in 10.0 mi SE 18.4 mph 21.9 mph N/A   Scattered Clouds
11:53 AM 89.1 °F 95.0 °F 71.1 °F 55% 29.97 in 10.0 mi SSE 16.1 mph - N/A   Scattered Clouds
12:53 PM 90.0 °F 96.9 °F 72.0 °F 55% 29.96 in 10.0 mi South 18.4 mph 26.5 mph N/A   Partly Cloudy
1:53 PM 91.0 °F 98.2 °F 72.0 °F 53% 29.95 in 10.0 mi SSE 15.0 mph 24.2 mph N/A   Scattered Clouds
2:53 PM 90.0 °F 96.4 °F 71.1 °F 54% 29.93 in 10.0 mi South 16.1 mph 24.2 mph N/A   Partly Cloudy
3:53 PM 90.0 °F 96.9 °F 72.0 °F 55% 29.93 in 10.0 mi South 16.1 mph - N/A   Partly Cloudy
4:53 PM 89.1 °F 95.0 °F 71.1 °F 55% 29.91 in 10.0 mi South 18.4 mph 24.2 mph N/A   Clear
5:53 PM 88.0 °F 93.8 °F 71.1 °F 57% 29.91 in 10.0 mi South 15.0 mph 23.0 mph N/A   Clear
6:53 PM 86.0 °F 92.2 °F 72.0 °F 63% 29.91 in 10.0 mi SSE 17.3 mph 21.9 mph N/A   Clear
7:53 PM 82.9 °F 88.0 °F 72.0 °F 69% 29.91 in 10.0 mi South 15.0 mph - N/A   Clear
8:53 PM 82.0 °F 87.4 °F 73.0 °F 74% 29.92 in 10.0 mi SSE 9.2 mph - N/A   Clear
9:53 PM 80.1 °F 83.8 °F 72.0 °F 76% 29.95 in 10.0 mi SE 8.1 mph - N/A   Clear
10:53 PM 79.0 °F - 72.0 °F 79% 29.98 in 10.0 mi SE 6.9 mph - N/A   Clear
11:53 PM 79.0 °F - 72.0 °F 79% 29.97 in 10.0 mi SE 8.1 mph - N/A   Clear